Location: Aleksandria
(48.6657°N, 33.1137°E)
Time: 13:38:46
(UTC+02:00)

BlueWalker 3 - Pass Details

Date: 29 November 2023
Orbit: 485 x 500 km, 53.2° (Epoch: 27 February)

Event Time Altitude Azimuth Distance (km) Brightness Sun altitude
Exits shadow 05:33:11 33° 306° (NW) 857 2.6 -16.3°
Maximum altitude 05:34:46 71° 22° (NNE) 531 2.0 -16.1°
Drops below altitude 10° 05:38:35 10° 107° (ESE) 1,690 6.0 -15.4°
Sets 05:40:46 0° 110° (ESE) 2,567 7.4 -15.1°
